Weather History for Coffeyville, KS

Change the Weather History Date:

Friday, February 15, 2013

  Actual Average Record
Temperature  
Mean Temperature 34 °F -  
Max Temperature 41 °F 49 °F 71 °F (2006)
Min Temperature 28 °F 29 °F 10 °F (2007)
Degree Days  
Heating Degree Days 30    
Moisture  
Dew Point 19 °F    
Average Humidity 58    
Maximum Humidity 86    
Minimum Humidity 31    
Precipitation  
Precipitation 0.00 in - - ()
Sea Level Pressure  
Sea Level Pressure 30.36 in    
Wind  
Wind Speed 13 mph (NNW)    
Max Wind Speed 23 mph    
Max Gust Speed 29 mph    
Visibility 9 miles    
Events Snow    
Averages and records for this station are not official NWS values.
T = Trace of Precipitation, MM = Missing Value Source: NWS Daily Summary

Daily Weather History Graph

Daily Weather History Graph

Search for Another Location

Airport:

Trip Planner

Search our weather history database for the weather conditions in past years. The results will help you decide how hot, cold, wet, or windy it might be!

Date:

Astronomy

Feb. 15, 2013 Rise Set
Actual Time 7:10 AM CST 6:02 PM CST
Civil Twilight 6:44 AM CST 6:29 PM CST
Nautical Twilight 6:13 AM CST 6:59 PM CST
Astronomical Twilight 5:43 AM CST 7:29 PM CST
Moon 9:56 AM CST (2/15) 11:54 PM CST (2/15)
Length of Visible Light 11h 45m
Length of Day
10h 51m
Waxing Crescent, 30% of the Moon is Illuminated
Feb 15
Waxing Crescent
Feb 17
First Quarter
Feb 25
Full
Mar 4
Last Quarter
Mar 11
New

Hourly Weather History & Observations

Time (CST) Temp. Windchill Dew Point Humidity Pressure Visibility Wind Dir Wind Speed Gust Speed Precip Events Conditions
12:52 AM 39.9 °F 31.1 °F 26.1 °F 58% 30.25 in 10.0 mi NW 17.3 mph - N/A   Clear
1:52 AM 37.0 °F 25.9 °F 23.0 °F 57% 30.28 in 10.0 mi NNW 23.0 mph 28.8 mph N/A   Clear
2:52 AM 33.1 °F 22.2 °F 23.0 °F 66% 30.30 in 10.0 mi NNW 17.3 mph - N/A   Clear
3:52 AM 32.0 °F 21.6 °F 23.0 °F 69% 30.31 in 10.0 mi NNW 15.0 mph - N/A   Clear
4:52 AM 30.9 °F 22.8 °F 24.1 °F 76% 30.32 in 10.0 mi NNW 9.2 mph - N/A   Clear
5:14 AM 30.2 °F 23.4 °F 23.0 °F 75% 30.32 in 10.0 mi North 6.9 mph - N/A   Mostly Cloudy
5:32 AM 30.2 °F 18.5 °F 23.0 °F 75% 30.33 in 10.0 mi NNW 17.3 mph 24.2 mph N/A   Scattered Clouds
5:52 AM 30.0 °F 19.5 °F 21.0 °F 69% 30.35 in 10.0 mi North 13.8 mph - N/A   Clear
6:52 AM 28.9 °F 16.5 °F 21.0 °F 72% 30.38 in 10.0 mi NNW 18.4 mph - N/A   Clear
7:52 AM 28.0 °F 16.1 °F 19.9 °F 72% 30.40 in 10.0 mi North 16.1 mph - N/A   Clear
8:52 AM 28.0 °F 17.5 °F 19.0 °F 69% 30.42 in 10.0 mi NNW 12.7 mph - N/A   Clear
9:52 AM 30.9 °F 21.2 °F 17.1 °F 57% 30.43 in 10.0 mi North 12.7 mph - N/A   Clear
10:52 AM 35.1 °F 27.4 °F 15.1 °F 44% 30.43 in 10.0 mi North 10.4 mph 21.9 mph N/A   Clear
11:52 AM 37.0 °F 31.6 °F 12.9 °F 37% 30.42 in 10.0 mi North 6.9 mph 19.6 mph N/A   Clear
12:52 PM 39.0 °F 32.3 °F 12.9 °F 34% 30.40 in 10.0 mi NW 10.4 mph 19.6 mph N/A   Clear
1:52 PM 39.9 °F 33.4 °F 15.1 °F 36% 30.37 in 10.0 mi NW 10.4 mph 16.1 mph N/A   Clear
2:52 PM 41.0 °F 33.9 °F 14.0 °F 33% 30.37 in 10.0 mi NW 12.7 mph - N/A   Clear
3:52 PM 41.0 °F 34.7 °F 12.0 °F 31% 30.36 in 10.0 mi NNW 10.4 mph - N/A   Clear
4:52 PM 41.0 °F 34.3 °F 12.0 °F 31% 30.35 in 10.0 mi NNW 11.5 mph - N/A   Clear
5:52 PM 37.0 °F 31.0 °F 15.1 °F 41% 30.36 in 10.0 mi North 8.1 mph - N/A   Clear
6:52 PM 36.0 °F - 14.0 °F 41% 30.36 in 10.0 mi Calm Calm - N/A   Clear
7:52 PM 33.1 °F - 16.0 °F 50% 30.36 in 10.0 mi Calm Calm - N/A   Clear
8:52 PM 28.0 °F 24.2 °F 21.0 °F 75% 30.35 in 10.0 mi SSE 3.5 mph - N/A   Clear
9:52 PM 28.9 °F - 19.0 °F 67% 30.34 in 10.0 mi Calm Calm - N/A   Partly Cloudy
10:52 PM 30.9 °F 27.5 °F 19.9 °F 64% 30.34 in 10.0 mi WNW 3.5 mph - N/A   Overcast
11:52 PM 32.0 °F 20.8 °F 26.1 °F 79% 30.37 in 2.0 mi NNW 17.3 mph 26.5 mph 0.00 in Snow Light Snow
11:55 PM 30.2 °F 19.3 °F 26.6 °F 86% 30.35 in 1.2 mi NNW 15.0 mph 26.5 mph 0.00 in Snow Light Snow